Location: SE Lincoln, NE
(40.7805°N, 96.6275°W)
Time: 13:24:07
(UTC-05:00)

Daily predictions for brighter satellites

Satellite Brightness Start Highest point End
(mag) Time Altitude Azimuth Time Altitude Azimuth Time Altitude Azimuth
Cosmos 2278 3.8 20:02:22 10° SSW 20:08:02 87° ESE 20:13:46 10° NNE
Cosmos 2297 Rocket 2.9 20:03:20 10° NNW 20:08:53 59° WSW 20:14:25 10° S
Cosmos 1605 Rocket 4.2 20:03:09 10° N 20:09:23 80° W 20:15:41 10° S
SL-16 R/B 3.7 20:07:42 10° SE 20:10:39 15° E 20:13:36 10° ENE
Envisat 3.2 20:07:48 10° S 20:12:52 80° WSW 20:17:59 10° NNW
SJ-6B 4.1 20:11:13 10° ESE 20:14:02 20° ENE 20:16:50 10° NNE
Cosmos 2082 3.9 20:08:43 10° NNW 20:14:22 80° WSW 20:19:58 10° SSE
FREGAT/IRIS 3.2 20:15:05 10° SE 20:17:43 34° ENE 20:20:22 10° N
Cosmos 1992 Rocket 4.4 20:13:43 10° NNW 20:18:55 68° WSW 20:24:04 10° S
Cosmos 1727 Rocket 4.1 20:14:22 10° S 20:20:40 88° W 20:27:03 10° N
Cosmos 1818 3.8 20:20:09 10° SW 20:25:36 76° WNW 20:31:06 10° NNE
ISS -2.4 20:25:08 10° W 20:28:14 36° NNW 20:31:20 10° NE
Cosmos 1346 Rocket 4.0 20:25:07 10° SSW 20:29:05 49° WNW 20:33:03 10° N
USA 238 DEB 3.9 20:27:10 10° S 20:33:36 50° ESE 20:40:12 10° NE
USA 238 3.9 20:27:18 10° S 20:33:43 49° ESE 20:40:17 10° NE
Iridium 4 Rocket 3.8 20:30:04 10° SSE 20:34:23 38° E 20:39:06 10° NNE
CZ-2D R/B 3.3 20:30:33 10° SSE 20:34:24 89° W 20:38:17 10° NNW
DELTA 2 R/B (1) 4.1 20:30:10 10° SW 20:35:25 44° SSE 20:39:50 14° E
Cosmos 1980 Rocket 2.2 20:31:30 10° SSW 20:37:10 83° ESE 20:42:53 10° NNE
SPOT 3 Rocket 3.6 20:32:53 10° SSE 20:38:01 61° ENE 20:43:10 10° N
Meteor 1-24 Rocket 3.9 20:36:01 10° N 20:41:07 44° ENE 20:46:10 10° SSE
MOS 1 4.4 20:38:07 10° SSE 20:43:47 80° WSW 20:49:30 10° NNW
Cosmos 1674 3.5 20:40:53 10° NNE 20:44:17 31° ENE 20:46:32 17° SE
ARGOS 4.3 20:42:00 16° ESE 20:44:48 23° ENE 20:48:59 10° NNE
Cosmos 1602 Rocket 3.5 20:44:01 10° N 20:48:24 65° E 20:52:47 10° SSE
H-2A R/B 3.3 20:46:48 17° ESE 20:49:20 24° ENE 20:53:32 10° NNE
SL-4 R/B 4.3 20:47:35 10° NW 20:50:52 20° N 20:54:00 10° NE
Cosmos 405 4.1 20:48:01 10° NNE 20:50:57 24° ENE 20:51:28 23° E
Cosmos 304 Rocket 4.3 20:47:07 10° NNW 20:51:52 61° WSW 20:56:34 10° S
SEDSat Delta rocket 4.4 20:50:41 10° SW 20:53:57 23° S 20:55:43 18° SE
Meteor 2-5 Rocket 3.7 20:50:31 10° N 20:56:05 90° NNW 21:01:37 10° S
SJ-11-01 4.3 20:51:57 10° SSE 20:56:30 57° ENE 21:01:05 10° N
Cosmos 2123 Rocket 4.1 20:50:36 10° SSE 20:56:32 53° E 21:02:31 10° NNE
HJ-1C 4.3 20:53:20 10° S 20:56:38 50° W 20:59:58 10° NNW
Cosmos 1766 3.1 20:52:57 10° S 20:56:47 78° E 21:00:40 10° N
Delta 2 Rocket 4.0 20:52:49 10° WSW 20:56:51 40° S 20:58:35 25° SE
KORONAS-FOTON 4.3 20:56:12 10° N 20:59:51 40° ENE 21:01:25 27° SE
Cosmos 2016 Rocket 3.9 20:58:39 10° N 21:04:58 74° E 21:11:09 10° SSE
Resurs 01 Rocket 2.4 21:05:46 29° ESE 21:06:59 33° ENE 21:10:58 10° N
Cosmos 1470 4.5 21:09:35 18° NE 21:09:35 18° NE 21:11:08 10° NE
SL-24 R/B - RUBIN 2 4.2 21:07:42 10° S 21:11:06 32° SE 21:11:06 32° SE
Cosmos 2100 Rocket 4.5 21:05:27 10° NNW 21:11:39 64° W 21:17:53 10° S
Cosmos 1733 3.3 21:12:26 22° SSE 21:14:39 53° E 21:18:26 10° NNE
Cosmos 2173 Rocket 4.4 21:09:37 10° NNW 21:15:41 64° W 21:21:47 10° S
NOSS 3-2 (C) 3.6 21:10:54 10° S 21:16:29 46° ESE 21:22:38 10° NE
CZ-4C R/B 2.9 21:11:23 10° NNW 21:18:45 84° ENE 21:24:28 22° SE
USA 186 2.4 21:16:55 15° S 21:19:34 56° W 21:22:47 10° NNW
NOSS 3-2 (A) 3.2 21:18:16 10° SSW 21:23:59 77° ESE 21:30:23 10° NE
Cosmos 2061 Rocket 4.3 21:20:55 10° NNW 21:27:12 68° W 21:33:31 10° S
Cosmos 2322 Rocket 2.1 21:23:01 10° S 21:28:31 61° ESE 21:34:03 10° NNE
Hubble Space Telescope 3.1 21:28:25 10° SSW 21:29:10 12° S 21:29:10 12° S
Genesis I 3.1 21:27:30 10° NNW 21:31:34 71° ENE 21:31:52 67° E
Cosmos 1864 Rocket 4.5 21:25:38 10° N 21:32:02 89° W 21:38:05 11° S
SL-08 RB Rocket 4.2 21:32:16 40° ENE 21:32:16 40° ENE 21:36:16 10° N
Shenzhou-11 Module 2.9 21:29:49 10° W 21:32:05 43° NW 21:32:05 43° NW
Cosmos 1825 Rocket 3.4 21:30:16 10° N 21:34:42 76° E 21:35:40 53° SSE
ATLAS 3B R/B 2.6 21:28:39 10° SSW 21:35:31 67° ESE 21:42:13 10° NE
Cosmos 1725 Rocket 4.0 21:30:13 10° N 21:36:31 83° W 21:42:13 13° S
Cosmos 1606 Rocket 3.3 21:36:31 42° S 21:37:55 78° E 21:42:15 10° N
CENTAUR R/B 3.9 21:34:15 10° S 21:44:18 16° NE 21:45:39 10° NE
COBE Rocket 3.9 21:34:41 10° N 21:39:35 78° WNW 21:44:18 10° SSW
CZ-2C R/B 4.2 21:45:50 27° NE 21:45:50 27° NE 21:49:00 10° N
USA 267 4.4 21:50:14 24° S 21:50:14 24° S 21:53:06 10° SSW
Cosmos 2263 Rocket 2.0 21:44:21 10° NNW 21:49:58 89° WSW 21:51:22 53° SSE
Cosmos 1758 Rocket 3.8 21:47:31 10° NNW 21:52:00 70° W 21:52:56 53° SSW
Spot 2 Rocket 3.4 21:53:08 66° E 21:53:17 66° ENE 21:58:23 10° N
SL-16 R/B 2.3 21:48:22 10° SSW 21:54:01 75° WNW 21:59:43 10° NNE
MetOp-B 4.4 22:00:13 51° NE 22:00:13 51° NE 22:04:57 10° N
Cosmos 1953 4.1 22:02:13 24° N 22:02:13 24° N 22:03:56 10° N
Resurs 1-3 4.3 21:59:10 42° SW 22:00:11 51° W 22:04:28 10° NNW
Cosmos 1850 Rocket 3.9 21:55:37 10° SSW 22:00:53 90° WSW 22:06:10 10° NNE
Cosmos 1763 Rocket 4.4 21:57:16 10° N 22:01:12 35° NE 22:01:12 35° NE
ISS -0.9 22:03:42 10° NW 22:05:31 14° N 22:05:31 14° N
Cosmos 1726 Rocket 3.9 22:06:26 61° WNW 22:06:26 61° WNW 22:10:36 10° N
Cosmos 292 Rocket 4.2 22:01:41 10° NNW 22:06:21 56° WSW 22:06:49 53° SW
Cosmos 468 Rocket 4.3 22:05:25 10° NNW 22:09:51 56° NNE 22:09:51 56° NNE
Cosmos 2360 Rocket 3.8 22:20:32 22° NNE 22:20:32 22° NNE 22:22:30 10° NNE
Meteor 1-21 Rocket 4.1 22:11:26 10° NNW 22:16:59 82° W 22:17:02 82° WSW
Cosmos 1741 Rocket 4.3 22:13:24 10° SSW 22:18:38 66° WNW 22:23:55 10° NNE
Cosmos 2228 4.1 22:21:06 43° WNW 22:21:06 43° WNW 22:24:45 10° N
DELTA 2 R/B (1) 3.9 22:16:02 10° W 22:20:37 60° WSW 22:20:37 60° WSW
Cosmos 1464 Rocket 4.3 22:17:12 10° N 22:22:04 50° NE 22:22:04 50° NE
ARGOS 4.0 22:23:31 40° SW 22:24:44 47° W 22:29:56 10° NNW
H-2A R/B 3.0 22:27:25 40° SW 22:28:27 44° W 22:33:33 10° NNW
Cosmos 2278 Rocket 4.4 22:25:46 10° NNE 22:27:15 13° NNE 22:27:15 13° NNE
SL-4 R/B 4.4 22:28:21 10° NW 22:30:28 19° NNW 22:30:28 19° NNW
Terra 4.2 22:37:51 14° NNE 22:37:51 14° NNE 22:38:35 10° N
Cosmos 1844 Rocket 3.8 22:32:54 10° NNW 22:36:25 35° NNE 22:36:25 35° NNE
Resurs 01 Rocket 3.7 22:43:19 22° W 22:43:30 22° W 22:46:57 10° NW
ADEOS Rocket 4.3 22:45:03 10° NNE 22:47:31 27° NNE 22:47:31 27° NNE
Cosmos 2322 Rocket 4.5 23:08:51 10° W 23:13:00 21° NW 23:17:11 10° N
ATLAS 3B R/B 4.3 23:20:52 10° W 23:26:42 29° NW 23:32:26 10° NNE
CENTAUR R/B 3.7 23:31:10 38° NNW 23:31:10 38° NNW 23:36:42 10° NNE
